"Pseudo-MPEC" for ZTF02V6

Created 2019 Feb 19 10:18:09 UT using Find_Orb

Click here for an explanation of pseudo-MPECs

 
 Astrometry: 
     ZTF02V6  C2019 02 08.24417 10 54 45.65 -09 06 34.8    ~292I 20.2 rUNEOCPI41
     ZTF02V6  C2019 02 08.25304 10 54 45.95 -09 06 34.3    ~292I 20.0 rUNEOCPI41
     ZTF02V6  C2019 02 08.27972 10 54 46.79 -09 06 33.6    ~292I 20.3 rUNEOCPI41
     ZTF02V6  C2019 02 08.30981 10 54 47.73 -09 06 32.8    ~292I 20.3 rUNEOCPI41

Station data:
(I41) Palomar Mountain--ZTF  (N33.357340 W116.859780)  US/California. 1.2-m
   f/2.44 Oschin Schmidt + CCD.

Orbital elements:  ZTF02V6
   Perihelion 2019 Jan 10.091807 +/- 42.2 TT =  2:12:12 (JD 2458493.591807)
Epoch 2019 Feb  8.0 TT = JDT 2458522.5   Earth MOID: 0.2524   Ma: 0.0411
M   7.95313379 +/- 26               (J2000 ecliptic)          AutoNEOCP
n   0.27511694 +/- 0.303            Peri.  263.74646 +/- 120
a   2.34130406 +/- 1.72             Node   216.81726 +/- 32
e   0.4766297 +/- 0.25              Incl.    3.88248 +/- 7
P   3.58                   H 21.3   G  0.15   U 11.9  SR
q 1.22536891 +/- 0.469    Q 3.45723922 +/- 50.4
From 4 observations 2019 Feb. 8 (94.5 min); mean residual 0".10
Residuals in arcseconds: 
190208 I41  .02-  .15-    190208 I41  .13-  .09+    
190208 I41  .10+  .13+    190208 I41  .06+  .07-    

Ephemerides (geocentric):
Date (UTC) HH   RA              Dec         delta   r     elong  mag " sig PA
---- -- -- --  -------------   -----------  ------ ------ -----  --- ---- ---
2019 02 19 10  10 59 29.904   -08 18 01.19  .32994 1.2980 156.7 20.4  60d 173
2019 02 19 11  10 59 30.496   -08 17 42.31  .33001 1.2981 156.7 20.4  60d 174
2019 02 19 12  10 59 31.085   -08 17 23.39  .33009 1.2983 156.7 20.4  60d 174
2019 02 19 13  10 59 31.672   -08 17 04.41  .33016 1.2984 156.8 20.4  60d 174
2019 02 19 14  10 59 32.255   -08 16 45.38  .33023 1.2986 156.8 20.4  60d 174
2019 02 19 15  10 59 32.836   -08 16 26.30  .33031 1.2987 156.8 20.4  60d 174
2019 02 19 16  10 59 33.414   -08 16 07.17  .33038 1.2989 156.9 20.4  60d 174
2019 02 19 17  10 59 33.989   -08 15 47.98  .33046 1.2990 156.9 20.4  60d 174
2019 02 19 18  10 59 34.561   -08 15 28.75  .33053 1.2991 157.0 20.4  60d 174
2019 02 19 19  10 59 35.130   -08 15 09.46  .33061 1.2993 157.0 20.4  60d 174
2019 02 19 20  10 59 35.696   -08 14 50.12  .33068 1.2994 157.0 20.4  60d 174
2019 02 19 21  10 59 36.260   -08 14 30.73  .33076 1.2996 157.1 20.4  60d 174
2019 02 19 22  10 59 36.821   -08 14 11.29  .33083 1.2997 157.1 20.4  60d 174
2019 02 19 23  10 59 37.379   -08 13 51.80  .33091 1.2999 157.1 20.4  60d 174
2019 02 20 00  10 59 37.934   -08 13 32.26  .33099 1.3000 157.2 20.4  60d 174
2019 02 20 01  10 59 38.486   -08 13 12.66  .33106 1.3001 157.2 20.4  60d 174
2019 02 20 02  10 59 39.036   -08 12 53.02  .33114 1.3003 157.2 20.4  60d 174
2019 02 20 03  10 59 39.583   -08 12 33.32  .33122 1.3004 157.3 20.4  60d 174
2019 02 20 04  10 59 40.127   -08 12 13.58  .33129 1.3006 157.3 20.4  60d 174
2019 02 20 05  10 59 40.668   -08 11 53.78  .33137 1.3007 157.4 20.4  60d 174
2019 02 20 06  10 59 41.207   -08 11 33.94  .33145 1.3009 157.4 20.4  60d 174
2019 02 20 07  10 59 41.743   -08 11 14.04  .33152 1.3010 157.4 20.4  60d 174
2019 02 20 08  10 59 42.276   -08 10 54.10  .33160 1.3012 157.5 20.4  60d 174
2019 02 20 09  10 59 42.806   -08 10 34.10  .33168 1.3013 157.5 20.4  60d 174
2019 02 20 10  10 59 43.334   -08 10 14.05  .33176 1.3015 157.5 20.4  60d 174
2019 02 20 11  10 59 43.859   -08 09 53.96  .33184 1.3016 157.6 20.4  60d 174
2019 02 20 12  10 59 44.381   -08 09 33.81  .33191 1.3017 157.6 20.4  60d 174
2019 02 20 13  10 59 44.900   -08 09 13.62  .33199 1.3019 157.7 20.4  60d 174
2019 02 20 14  10 59 45.417   -08 08 53.37  .33207 1.3020 157.7 20.4  60d 174
2019 02 20 15  10 59 45.931   -08 08 33.08  .33215 1.3022 157.7 20.4  60d 174
2019 02 20 16  10 59 46.443   -08 08 12.74  .33223 1.3023 157.8 20.4  60d 174
2019 02 20 17  10 59 46.951   -08 07 52.35  .33231 1.3025 157.8 20.4  60d 174
2019 02 20 18  10 59 47.457   -08 07 31.90  .33239 1.3026 157.8 20.4  60d 174
2019 02 20 19  10 59 47.961   -08 07 11.41  .33247 1.3028 157.9 20.4  60d 174
2019 02 20 20  10 59 48.461   -08 06 50.87  .33255 1.3029 157.9 20.4  60d 174
2019 02 20 21  10 59 48.959   -08 06 30.29  .33263 1.3031 157.9 20.4  60d 174
2019 02 20 22  10 59 49.455   -08 06 09.65  .33271 1.3032 158.0 20.4  60d 174
2019 02 20 23  10 59 49.948   -08 05 48.96  .33279 1.3034 158.0 20.4  60d 174
2019 02 21 00  10 59 50.438   -08 05 28.23  .33287 1.3035 158.1 20.4  60d 174
2019 02 21 01  10 59 50.925   -08 05 07.45  .33295 1.3037 158.1 20.4  60d 174
2019 02 21 02  10 59 51.410   -08 04 46.62  .33303 1.3038 158.1 20.4  60d 174
2019 02 21 03  10 59 51.893   -08 04 25.74  .33311 1.3040 158.2 20.4  60d 174
2019 02 21 04  10 59 52.372   -08 04 04.81  .33320 1.3041 158.2 20.4  60d 174
2019 02 21 05  10 59 52.850   -08 03 43.84  .33328 1.3042 158.2 20.4  60d 174
2019 02 21 06  10 59 53.324   -08 03 22.81  .33336 1.3044 158.3 20.4  60d 174
2019 02 21 07  10 59 53.796   -08 03 01.74  .33344 1.3045 158.3 20.4  60d 174
2019 02 21 08  10 59 54.266   -08 02 40.62  .33352 1.3047 158.4 20.4  60d 174
2019 02 21 09  10 59 54.732   -08 02 19.46  .33361 1.3048 158.4 20.4  60d 174